Location: Houhaj�rvi
(61.2833°N, 23.0000°E)
Time: 04:30:33
(UTC+00:00)

USA 229 DEB - Pass Details

Date: 27 February 2020
Orbit: 988 x 1224 km, 63.4° (Epoch: 26 March)

Event Time Altitude Azimuth Distance (km) Brightness Sun altitude
Rises 17:20:26 0° 232° (SW) 3,756 7.3 -12.1°
Reaches altitude 10° 17:22:59 10° 230° (SW) 2,831 6.6 -12.4°
Maximum altitude 17:29:39 74° 147° (SSE) 1,117 3.7 -13.2°
Enters shadow 17:36:15 12° 65° (ENE) 2,829 5.4 -14.0°
